User: anonymous   Login
Location: West Sayville
(40.7279°N, 73.0976°W)
Time: 21:48:17
(UTC+00:00)
Language:

Helios 1A Rocket - Orbit

View from above orbital plane
View from above orbital plane
View from above satellite
View from above satellite

Ground track
Ground track

The orbit data is extracted from the following two-line orbital elements,

1 23608U 95033D   21016.55958582  .00001017  00000-0  92756-4 0  9998
2 23608  98.3104  47.5739 0014953 253.8878 106.0696 14.97531688383334
Epoch (UTC): 16 January 2021 13:25:48
Eccentricity: 0.0014953
inclination: 98.3104°
perigee height: 564 km
apogee height: 585 km
right ascension of ascending node: 47.5739°
argument of perigee: 253.8878°
revolutions per day: 14.97531688
mean anomaly at epoch: 106.0696°
orbit number at epoch: 38333

The dashed part of the orbit path shows where the satellite is in the earth's shadow,  

DLR